www.pogodaiklimat.ru
ПОГОДА в Виго
Время
(UTC), дата
04 10.10
05 10.10
06 10.10
07 10.10
08 10.10
09 10.10
10 10.10
11 10.10
12 10.10
13 10.10
14 10.10
15 10.10
16 10.10
17 10.10
18 10.10
19 10.10
20 10.10
21 10.10
22 10.10
23 10.10
00 11.10
01 11.10
02 11.10
03 11.10
04 11.10
05 11.10
06 11.10
07 11.10
08 11.10
09 11.10
10 11.10
11 11.10
12 11.10
13 11.10
14 11.10
15 11.10
16 11.10
17 11.10
18 11.10
19 11.10
20 11.10
21 11.10
22 11.10
23 11.10
00 12.10
01 12.10
02 12.10
03 12.10
04 12.10
05 12.10
06 12.10
07 12.10
08 12.10
09 12.10
10 12.10
11 12.10
12 12.10
13 12.10
14 12.10
15 12.10
16 12.10
17 12.10
18 12.10
19 12.10
20 12.10
21 12.10
22 12.10
23 12.10
00 13.10
01 13.10
02 13.10
03 13.10
04 13.10
05 13.10
06 13.10
07 13.10
08 13.10
09 13.10
10 13.10
11 13.10
12 13.10
13 13.10
14 13.10
15 13.10
16 13.10
17 13.10
18 13.10
19 13.10
20 13.10
21 13.10
22 13.10
23 13.10
00 14.10
01 14.10
02 14.10
03 14.10
04 14.10
05 14.10
06 14.10
07 14.10
08 14.10
09 14.10
10 14.10
11 14.10
12 14.10
13 14.10
14 14.10
15 14.10
16 14.10
17 14.10
18 14.10
19 14.10
20 14.10
21 14.10
22 14.10
23 14.10
00 15.10
01 15.10
02 15.10
04 15.10
05 15.10
06 15.10
07 15.10
08 15.10
09 15.10
10 15.10
11 15.10
12 15.10
13 15.10
14 15.10
15 15.10
16 15.10
17 15.10
18 15.10
19 15.10
20 15.10
21 15.10
22 15.10
23 15.10
00 16.10
01 16.10
02 16.10
03 16.10
04 16.10
05 16.10
06 16.10
07 16.10
08 16.10
09 16.10
10 16.10
11 16.10
12 16.10
13 16.10
14 16.10
15 16.10
16 16.10
17 16.10
18 16.10
19 16.10
20 16.10
21 16.10
22 16.10
23 16.10
00 17.10
01 17.10
02 17.10
03 17.10
04 17.10
Ветер
(напр.,м/с)
Видим. Явления Облачность Т
(С)
Тd
(С)
f
(%)
Тe
(С)
Тes
(С)
Комфортность P
(гПа)
Po
(гПа)
Тmin
(С)
Tmax
(С)
R
(мм)
R24
(мм)
S
(см)
С 3 н/о н/о +11.3 +7.0 75 +10 +10 тепло 1021.8 990.8
С 2 н/о н/о +11.2 +6.7 74 +10 +10 тепло 1021.8 990.8
С 3 40 км ясно +11.3 +6.8 74 +10 +10 тепло 1021.8 990.8 +10.6
СВ 2 н/о н/о +10.6 +8.0 84 +10 +10 тепло 1022.2 991.1
СВ 1 н/о н/о +13.4 +9.8 79 +14 +14 тепло 1022.1 991.3
В 2 30 км ясно +15.8 +10.2 69 +16 +18 тепло 1021.9 991.4
В 2 н/о н/о +17.5 +10.5 63 +18 +18 тепло 1021.4 991.1
В 3 н/о н/о +20.0 +12.0 60 +22 +22 комфорт 1020.9 990.9
Ю 3 30 км ясно +19.8 +11.1 57 +21 +28 комфорт 1020.5 990.4
Ю 3 н/о н/о +20.4 +11.5 57 +23 +23 комфорт 1019.7 989.7
ЮВ 1 н/о н/о +22.6 +11.6 50 +25 +25 комфорт 1018.6 988.9
С 2 30 км ясно +22.3 +13.0 56 +25 +31 комфорт 1018.2 988.5
С 2 н/о н/о +21.3 +12.5 57 +24 +24 комфорт 1017.9 988.1
С 1 н/о н/о +20.9 +13.4 62 +25 +25 комфорт 1017.5 987.7
З 2 30 км ясно +18.1 +14.6 80 +19 +19 тепло 1017.8 987.7 +23.3
СЗ 2 н/о н/о +16.7 +13.4 81 +17 +17 тепло 1018.2 987.9
С 2 н/о н/о +16.3 +13.2 82 +16 +16 тепло 1018.2 987.9
С 1 15 км ясно +15.9 +13.7 87 +17 +17 тепло 1018.4 988.0
С 2 н/о н/о +15.1 +14.0 93 +15 +15 тепло 1018.5 988.0
штиль 0 н/о н/о +15.2 +13.0 87 +15 +15 тепло 1018.2 987.8
З 1 15 км ясно +14.3 +13.0 92 +15 +15 тепло 1018.0 987.5
штиль 0 н/о н/о +14.1 +12.5 90 +14 +14 тепло 1018.0 987.4
ЮЗ 1 н/о н/о +13.3 +11.5 89 +14 +14 тепло 1017.9 987.2
З 1 15 км ясно +13.4 +11.5 88 +14 +14 тепло 1017.4 986.8
ЮЗ 2 н/о н/о +14.0 +11.0 82 +14 +14 тепло 1017.4 986.8
ЮЗ 3 н/о н/о +13.0 +12.2 95 +11 +11 тепло 1017.5 986.8
ЮЗ 3 н/о н/о +12.5 +11.6 94 +11 +11 тепло 1017.8 987.1 +12.2
З 2 н/о н/о +12.0 +11.3 95 +11 +11 тепло 1018.0 987.2
Ю 3 н/о н/о +14.0 +11.9 87 +13 +13 тепло 1018.3 987.7
Ю 3 н/о н/о +15.2 +12.2 82 +15 +15 тепло 1018.4 987.9
Ю 3 н/о н/о +17.3 +12.5 73 +17 +17 тепло 1017.9 987.7
Ю 2 н/о н/о +19.9 +12.7 63 +22 +22 комфорт 1017.3 987.4
ЮЗ 3 25 км ясно +20.1 +15.1 73 +23 +31 комфорт 1016.9 987.0
З 4 н/о н/о +19.7 +15.3 76 +22 +22 комфорт 1016.3 986.4
З 4 н/о н/о +20.1 +14.9 72 +23 +23 комфорт 1015.6 985.8
З 5 25 км ясно +19.5 +14.4 72 +21 +24 комфорт 1015.5 985.6
З 4 н/о н/о +18.5 +13.8 74 +19 +19 тепло 1015.5 985.5
З 3 н/о н/о +17.4 +13.3 77 +17 +17 тепло 1015.2 985.1
З 4 25 км 1/0
[Ac lent]
+15.7 +13.5 87 +15 +15 тепло 1015.4 985.1 +20.3
З 3 н/о н/о +14.8 +13.5 92 +14 +14 тепло 1015.5 985.1
З 2 н/о н/о +14.3 +13.3 94 +14 +14 тепло 1015.8 985.3
СЗ 1 20 км н/о +13.3 +12.6 96 +13 +13 тепло 1015.9 985.3
З 1 н/о н/о +12.8 +12.3 97 +13 +13 тепло 1015.7 985.1
З 2 н/о н/о +13.8 +12.9 94 +13 +13 тепло 1015.6 985.1
ЮЗ 2 н/о н/о +12.7 +12.2 97 +12 +12 тепло 1015.2 984.6
ЮВ 1 н/о н/о +13.8 +13.2 96 +14 +14 тепло 1014.7 984.2
Ю 3 н/о н/о +14.3 +13.2 93 +13 +13 тепло 1014.0 983.6
Ю 3 н/о н/о +14.2 +13.2 94 +13 +13 тепло 1013.3 982.9
Ю 3 н/о н/о +14.3 +13.3 94 +13 +13 тепло 1013.3 982.9
Ю 3 н/о н/о +14.5 +13.4 93 +13 +13 тепло 1013.0 982.6
Ю 3 н/о н/о +14.8 +13.5 92 +14 +14 тепло 1012.9 982.6 +12.6
Ю 2 н/о н/о +14.7 +13.4 92 +14 +14 тепло 1012.8 982.5
Ю 3 н/о н/о +15.1 +13.6 91 +15 +15 тепло 1013.1 982.8
Ю 2 15 км 10/10 600 м
[Sc]
+16.0 +14.0 88 +16 +16 тепло 1013.0 982.8
Ю 3 н/о н/о +16.8 +13.7 82 +17 +17 тепло 1012.9 982.8
Ю 4 н/о н/о +17.8 +14.6 82 +18 +18 тепло 1012.4 982.4
Ю 5 9000 м 10/10 600 м
[Sc]
+18.5 +15.2 81 +19 +19 тепло 1012.0 982.1
Ю 5 н/о н/о +18.8 +15.5 81 +20 +20 тепло 1011.3 981.5
Ю 7 н/о н/о +19.8 +15.4 76 +22 +22 комфорт 1010.7 981.0
Ю 7 15 км 9/9 600 м
[Sc]
+19.7 +15.3 76 +21 +22 комфорт 1010.5 980.8
Ю 8 н/о н/о +19.5 +14.3 72 +21 +21 комфорт 1010.5 980.7
Ю 6 н/о н/о +18.1 +13.7 75 +18 +18 тепло 1010.8 980.9
Ю 5 20 км 8/8 600 м
[Sc]
+17.0 +14.3 84 +16 +16 тепло 1010.7 980.7 +20.2
Ю 5 н/о н/о +15.9 +13.9 88 +15 +15 тепло 1010.7 980.6
Ю 5 н/о н/о +16.1 +13.9 87 +15 +15 тепло 1010.6 980.5
Ю 5 20 км 9/9 600 м
[Sc]
+16.4 +13.3 82 +15 +15 тепло 1010.3 980.2
Ю 5 н/о н/о +16.4 +13.5 83 +15 +15 тепло 1010.2 980.1
Ю 6 н/о осадки н/о +16.6 +13.9 84 +15 +15 тепло 1009.8 979.8
Ю 8 20 км слаб. дождь 10/10 300 м
[Sc]
+16.0 +14.5 91 +14 +14 тепло 1009.8 979.7 0.0
Ю 7 н/о в посл. час осадки н/о +16.2 +14.4 89 +15 +15 тепло 1009.3 979.2
Ю 7 н/о осадки н/о +16.3 +14.8 91 +15 +15 тепло 1008.4 978.4
Ю 9 3000 м 10/10 50 м
[Sc As op]
+15.4 +15.4 100 +13 +13 тепло 1007.8 977.7 0.8
Ю 8 н/о осадки н/о +15.3 +15.3 100 +13 +13 тепло 1007.3 977.2
Ю 6 н/о осадки н/о +15.7 +15.7 100 +14 +14 тепло 1008.2 978.1
ЮЗ 7 15 км в посл. час дождь {морось, туман} 10/10 200 м
[Sc As op]
+16.3 +15.9 97 +15 +15 тепло 1009.0 979.0 +15.2 7
З 3 н/о осадки н/о +14.6 +14.6 100 +14 +14 тепло 1010.0 979.8
ЮЗ 3 н/о осадки н/о +14.5 +14.5 100 +14 +14 тепло 1010.9 980.6
ЮЗ 2 15 км 10/9 200 м
[Frnb As trans]
+14.9 +14.6 98 +14 +15 тепло 1011.6 981.3 0.5
ЮЗ 2 н/о н/о +15.7 +14.1 90 +16 +16 тепло 1011.9 981.7
ЮЗ 1 н/о н/о +16.3 +14.5 89 +17 +17 тепло 1011.7 981.6
ЮЗ 1 20 км 10/10 300 м
[Frnb]
+16.3 +15.0 92 +17 +17 тепло 1011.5 981.4
З 3 н/о осадки н/о +16.2 +15.4 95 +16 +16 тепло 1011.0 980.9
ЮЗ 3 н/о осадки н/о +15.9 +15.4 97 +16 +16 тепло 1010.9 980.8
З 3 7000 м дождь 10/10 300 м
[Frnb]
+15.5 +15.2 98 +15 +15 тепло 1010.7 980.5 1
З 4 н/о осадки н/о +14.8 +14.6 99 +14 +14 тепло 1010.5 980.3
З 4 н/о осадки н/о +13.9 +13.9 100 +12 +12 тепло 1010.3 980.0
З 3 8000 м дождь 10/10 100 м
[Frnb]
+13.2 +13.0 99 +12 +12 тепло 1010.5 980.1 +16.5 2
З 3 н/о осадки н/о +12.9 +12.4 97 +11 +11 тепло 1011.0 980.5
штиль 0 н/о осадки н/о +12.5 +12.5 100 +12 +12 тепло 1011.1 980.6
ЮВ 2 7000 м дождь 10/10 600 м
[Frnb]
+12.3 +12.3 100 +12 +12 тепло 1010.6 980.1 6
ЮЗ 1 н/о осадки н/о +12.1 +12.1 100 +12 +12 тепло 1010.5 980.0
Ю 1 н/о осадки н/о +12.2 +12.2 100 +12 +12 тепло 1010.4 979.9
Ю 3 500 м сильн. дождь {туман} 10/10 50 м
[Frnb]
+12.2 +12.2 100 +11 +11 тепло 1009.6 979.1 6
Ю 4 н/о осадки н/о +12.0 +12.0 100 +10 +10 тепло 1009.5 979.0
Ю 3 н/о осадки н/о +11.8 +11.8 100 +10 +10 тепло 1008.4 977.9
Ю 2 500 м 10/10 50 м
[Frnb]
+11.8 +11.8 100 +10 +10 тепло 1007.8 977.3 1
Ю 4 н/о в посл. час осадки н/о +11.7 +11.7 100 +9 +9 тепло 1007.9 977.4
Ю 4 н/о н/о +11.7 +11.7 100 +9 +9 тепло 1007.4 976.9
Ю 5 10 км 10/10 300 м
[Frnb]
+11.7 +11.7 100 +9 +9 тепло 1007.3 976.8 +11.6 0.1
Ю 4 н/о осадки н/о +11.6 +11.6 100 +9 +9 тепло 1008.1 977.6
Ю 2 н/о осадки н/о +11.7 +11.7 100 +11 +11 тепло 1009.2 978.6
Ю 3 н/о в посл. час осадки н/о +12.2 +12.2 100 +10 +10 тепло 1009.6 979.1 9
Ю 3 н/о в посл. час осадки н/о +13.1 +13.1 100 +12 +12 тепло 1010.2 979.8
З 2 н/о осадки н/о +12.1 +11.2 94 +11 +11 тепло 1011.5 980.9
СЗ 4 5000 м 3/3 300 м
[Frnb Ac As]
+13.2 +10.6 84 +11 +15 тепло 1012.4 981.9 2
З 5 н/о н/о +14.0 +10.2 78 +12 +12 тепло 1012.9 982.5
ЮЗ 3 н/о в посл. час осадки н/о +13.1 +9.7 80 +12 +12 тепло 1013.2 982.7
З 6 10 км 3/3 600 м
[St]
+14.7 +7.1 60 +13 +15 тепло 1014.0 983.6 0.5
З 6 н/о осадки н/о +11.0 +8.4 84 +8 +8 тепло 1015.7 984.8
СВ 1 н/о осадки н/о +12.3 +10.6 89 +12 +12 тепло 1016.1 985.4
З 2 9000 м 3/3 1000 м
[St]
+12.4 +9.0 80 +12 +12 тепло 1016.9 986.2 +14.8 2
З 2 н/о н/о +12.0 +9.4 84 +11 +11 тепло 1017.7 986.9
З 2 н/о н/о +11.0 +9.4 90 +10 +10 тепло 1018.1 987.2
З 2 10 км 5/4 600 м
[Frnb]
+10.1 +9.5 96 +9 +9 тепло 1019.0 988.0
Ю 3 н/о в посл. час осадки н/о +10.5 +9.6 94 +9 +9 тепло 1019.3 988.3
ЮЗ 3 н/о н/о +10.4 +10.1 98 +8 +8 тепло 1019.6 988.6
ЮЗ 3 10 км ясно +10.0 +10.0 100 +8 +8 тепло 1019.9 988.8 0.0
Ю 4 н/о в посл. час осадки н/о +10.2 +10.2 100 +8 +8 тепло 1019.9 988.8
Ю 3 н/о н/о +9.9 +9.9 100 +8 +8 тепло 1019.9 988.8
ЮЗ 3 н/о осадки н/о +9.4 +9.4 100 +7 +7 тепло 1020.0 988.8
ЮЗ 2 н/о н/о +9.7 +9.7 100 +8 +8 тепло 1019.9 988.8
Ю 4 н/о в посл. час осадки н/о +9.7 +9.7 100 +7 +7 тепло 1019.9 988.8 +9.4 0.0
Ю 4 н/о в посл. час осадки н/о +9.9 +9.9 100 +7 +7 тепло 1019.9 988.8
Ю 3 н/о в посл. час осадки н/о +10.4 +10.4 100 +8 +8 тепло 1020.3 989.3
Ю 4 900 м туман местами {дождь} 10/4 <50 м
[Frnb Ac As Cs]
+11.4 +11.4 100 +9 +9 тепло 1020.7 989.8 0.2
Ю 4 н/о в посл. час осадки н/о +11.6 +11.6 100 +9 +9 тепло 1020.4 989.5
Ю 4 н/о н/о +12.4 +12.4 100 +10 +10 тепло 1020.2 989.4
Ю 4 900 м морось {дождь, туман} 10/3 <50 м
[Frnb Ac As Cs]
+12.8 +12.5 98 +11 +13 тепло 1019.8 989.0 0.3
Ю 4 н/о н/о +14.3 +13.3 94 +13 +13 тепло 1019.3 988.7
Ю 5 н/о н/о +15.0 +13.7 92 +13 +13 тепло 1018.7 988.2
Ю 5 20 км 10/5 600 м
[Cu Sc Ac As Cs]
+15.0 +12.5 85 +14 +14 тепло 1018.5 988.0 0.0
Ю 6 н/о н/о +15.1 +12.7 86 +13 +13 тепло 1018.2 987.7
Ю 5 н/о осадки н/о +14.3 +13.0 92 +13 +13 тепло 1018.3 987.8
Ю 6 20 км 10/4 600 м
[Cu Sc Ac As Cs]
+14.1 +13.0 93 +12 +12 тепло 1018.4 987.8 +15.4 0.0
Ю 5 н/о н/о +13.8 +13.0 95 +12 +12 тепло 1018.4 987.8
Ю 5 н/о н/о +13.6 +13.1 97 +12 +12 тепло 1017.9 987.3
Ю 6 15 км 10/5 600 м
[Cu Sc Ac As Cs]
+14.1 +13.3 95 +12 +12 тепло 1017.9 987.4
Ю 6 н/о осадки н/о +13.8 +13.2 96 +12 +12 тепло 1018.1 987.5
Ю 6 н/о осадки н/о +13.6 +13.6 100 +11 +11 тепло 1018.0 987.4
Ю 7 15 км слаб. морось {дождь} 10/4 200 м
[Frnb Ac As Cs]
+13.5 +13.5 100 +11 +11 тепло 1017.7 987.1 0.4
Ю 7 н/о осадки н/о +13.3 +13.3 100 +11 +11 тепло 1017.3 986.7
Ю 6 н/о в посл. час осадки н/о +13.4 +13.4 100 +11 +11 тепло 1016.8 986.2
Ю 6 н/о осадки н/о +13.9 +13.9 100 +12 +12 тепло 1016.5 986.0 1
ЮЗ 7 н/о осадки н/о +14.2 +14.0 99 +12 +12 тепло 1016.1 985.6
Ю 7 н/о осадки н/о +14.2 +13.9 98 +12 +12 тепло 1015.8 985.3
Ю 8 15 км слаб. дождь 10/4 100 м
[Frnb Ac As Cs]
+14.2 +14.0 99 +12 +12 тепло 1015.9 985.4 +13.3 0.5
Ю 7 н/о осадки н/о +14.1 +14.1 100 +12 +12 тепло 1015.6 985.1
Ю 5 н/о осадки н/о +13.8 +13.8 100 +12 +12 тепло 1015.8 985.3
Ю 6 2000 м дождь 10/10 50 м
[Sc As op]
+13.8 +13.8 100 +11 +11 тепло 1015.7 985.2 2
Ю 8 н/о осадки н/о +13.9 +13.9 100 +11 +11 тепло 1015.7 985.2
Ю 8 н/о осадки н/о +14.4 +14.4 100 +12 +12 тепло 1015.1 984.7
Ю 8 100 м морось {дождь, туман} н/о +14.5 +14.5 100 +12 +12 тепло 1014.4 984.0 2
Ю 8 н/о осадки н/о +14.4 +14.4 100 +12 +12 тепло 1013.9 983.5
Ю 7 н/о осадки н/о +14.5 +14.5 100 +12 +12 тепло 1013.8 983.4
Ю 7 100 м слаб. дождь {туман} н/о +14.2 +14.2 100 +12 +12 тепло 1013.4 983.0 12
Ю 8 н/о осадки н/о +14.3 +14.3 100 +12 +12 тепло 1013.1 982.7
Ю 8 н/о осадки н/о +14.7 +14.7 100 +12 +12 тепло 1012.8 982.5
Ю 7 100 м дождь {туман} н/о +14.7 +14.7 100 +13 +13 тепло 1012.6 982.3 +14.8 9
Ю 5 н/о осадки н/о +15.3 +15.3 100 +14 +14 тепло 1012.5 982.3
Ю 7 н/о осадки н/о +15.6 +15.6 100 +14 +14 тепло 1012.5 982.3
Ю 4 200 м дождь {туман} н/о +15.7 +15.7 100 +15 +15 тепло 1012.9 982.7 8
Ю 6 н/о осадки н/о +15.5 +15.5 100 +14 +14 тепло 1013.4 983.2
Ю 5 н/о осадки н/о +15.4 +15.4 100 +14 +14 тепло 1013.5 983.2
Ю 2 100 м туман {дождь} н/о +15.5 +15.5 100 +15 +15 тепло 1013.5 983.3 3
Ю 3 н/о осадки н/о +15.6 +15.6 100 +15 +15 тепло 1013.7 983.5
ЮЗ 3 н/о в посл. час осадки н/о +15.8 +15.8 100 +15 +15 тепло 1013.7 983.5
Ю 3 100 м туман н/о +15.6 +15.6 100 +15 +15 тепло 1013.5 983.3 0.4
ЮЗ 4 н/о осадки н/о +15.1 +15.1 100 +14 +14 тепло 1013.9 983.6
Местоположение метеостанции Виго (Испания): широта 42.23 долгота -8.63 высота над уровнем моря 255 м.
В архиве по умолчанию представлена погода в Виго за последнюю неделю. Архивные данные за месяц целиком и за предыдущие месяцы, начиная с января 2011 года, Вы можете получить, выбрав интересующий диапазон дат из раскрывающегося списка и нажав кнопку "Найти!".
*Определитесь, кто Вы:
Внимание! Время в таблицах - всемирное. Для получения местного времени необходимо прибавить поправку, которая равна 1 ч.
Смотрите также архив погоды в соседних городах и на ближайших метеорологических станциях:
Партнеры нашего сайта:      
Пояснения к столбцам:
  • Ветер - указаны скорость ветра в м/с - средняя за 10 мин, порывы в срок и между сроками (в фигурных скобках) и направление, откуда дует ветер: С - северный,
  • СВ - северо-восточный, В - восточный, ЮВ - юго-восточный, Ю - южный, ЮЗ - юго-западный, З - западный, СЗ - северо-западный.
  • Видимость - горизонтальная дальность видимости в метрах или километрах. При видимости от 1 до 10 км при отсутствии осадков обычно наблюдается дымка, при ухудшении видимости до 1 км и менее - туман. В сухую погоду видимость может ухудшаться дымом, пылью или мглою.
  • Явления - указаны атмосферные явления, наблюдавшиеся в срок или в последний час перед сроком; фигурными скобками обозначены явления, наблюдавшиеся между сроками (за 1-3 часа до срока); квадратными скобками обозначены град или гололедные отложения с указанием их диаметра в мм.
  • Облачность - указаны через наклонную черту общая и нижняя облачность в баллах и высота нижней границы облаков в метрах; квадратными скобками обозначены формы облаков: Ci - перистые, Cs - перисто-слоистые, Cc - перисто-кучевые, Ac - высококучевые, As - высокослоистые, Sc - слоисто-кучевые, Ns - слоисто-дождевые, Cu - кучевые, Cb - кучево-дождевые. Подробнее классификацию облаков см. в Атласе облаков (PDF).
  • T - Температура воздуха - температура, измеренная на высоте 2 м над землей.
  • Td - Температура точки росы - температура, при понижении до которой содержащийся в воздухе водяной пар достигнет насыщения.
  • f - Относительная влажность воздуха - влажноcть воздуха, измеренная на высоте 2 м над землей.
  • Te - Эффективная температура - температура, которую ощущает одетый по сезону человек в тени. Характеристика душности погоды. При расчете учитывается влияние влажности воздуха и скорости ветра на теплоощущения человека.
  • Tes - Эффективная температура на солнце - температура, которую ощущает человек, с поправкой на солнечный нагрев. Характеристика знойности погоды. Зависит от высоты солнца над горизонтом, облачности и скорости ветра. Ночью, в пасмурную погоду, а также при ветре 12 м/с и более поправка равна нулю.
  • P - Атмосферное давление - приведенное к уровню моря атмосферное давление.
  • Po - Атмосферное давление - измеренное на уровне метеостанции атмосферное давление.
  • Tmin - Минимальная температура - минимум температуры воздуха на высоте 2 м над землей.
  • Tmax - Максимальная температура - максимум температуры воздуха на высоте 2 м над землей.
  • R - Количество осадков - Количество выпавших осадков за период времени, мм. При наведении курсора мыши на число - период времени, за который выпало указанное количество осадков.
  • R24 - Количество осадков - Количество выпавших осадков за 24 часа, мм.
  • S - Снежный покров - Высота снежного покрова, см. При наведении курсора мыши на число - состояние снежного покрова и степень покрытия местности в баллах.